Tracking 19224 objects as of 22-Jul-2018
HD Live streaming from Space Station
objects crossing your sky now

FENGYUN 1C DEB

Track FENGYUN 1C DEB now!
10-day predictions


NORAD ID: 35109
Int'l Code: 1999-025DKM
Perigee: 726.2 km
Apogee: 953.1 km
Inclination: 98.7 °
Period: 101.6 minutes
Semi major axis: 7210 km
RCS: 0.0098 m2 (small)
Launch date: May 10, 1999
Source: People's Republic of China (PRC)
Launch site: Taiyaun Space Center, China (TSC)

Note: This is SATELLITE DEBRIS
aabbcc
Your satellite tracking list
Your tracking list is empty




NASA's NSSDC Master Catalog

Two Line Element Set (TLE):
1 35109U 99025DKM 18202.04699571  .00000076  00000-0  52420-4 0  9997
2 35109  98.6836 233.5272 0157273 269.0665  89.2489 14.17886909502317
Source of the keplerian elements: AFSPC